Time,TemperatureF,DewpointF,PressureIn,WindDirection,WindDirectionDegrees,WindSpeedMPH,WindSpeedGustMPH,Humidity,HourlyPrecipIn,Conditions,Clouds,dailyrainin,SoftwareType,DateUTC
2017-12-16 00:03:00,38.5,33.8,29.80,NW,326,5.0,5.0,83,0.00,,---,0.00,VWS V15.00,2017-12-16 06:03:00,
2017-12-16 00:04:00,38.5,33.8,29.80,WNW,297,7.0,7.0,83,0.00,,---,0.00,VWS V15.00,2017-12-16 06:04:00,
2017-12-16 00:09:00,38.4,33.7,29.80,WNW,294,5.0,7.0,83,0.00,,---,0.00,VWS V15.00,2017-12-16 06:09:00,
2017-12-16 00:11:00,38.4,33.7,29.81,NW,312,4.0,5.0,83,0.00,,---,0.00,VWS V15.00,2017-12-16 06:11:00,
2017-12-16 00:14:00,38.4,33.7,29.81,WNW,302,6.0,6.0,83,0.00,,---,0.00,VWS V15.00,2017-12-16 06:14:00,
2017-12-16 00:17:00,38.3,33.6,29.81,NW,313,2.0,6.0,83,0.00,,---,0.00,VWS V15.00,2017-12-16 06:17:00,
2017-12-16 00:20:00,38.3,33.6,29.81,WNW,303,6.0,7.0,83,0.00,,---,0.00,VWS V15.00,2017-12-16 06:20:00,
2017-12-16 00:23:00,38.2,33.5,29.82,NW,312,3.0,4.0,83,0.00,,---,0.00,VWS V15.00,2017-12-16 06:23:00,
2017-12-16 00:25:00,38.1,33.4,29.82,NW,312,2.0,7.0,83,0.00,,---,0.00,VWS V15.00,2017-12-16 06:25:00,
2017-12-16 00:30:00,37.9,33.2,29.81,WNW,287,7.0,11.0,83,0.00,,---,0.00,VWS V15.00,2017-12-16 06:30:00,
2017-12-16 00:32:00,38.0,33.3,29.82,NNW,329,5.0,11.0,83,0.00,,---,0.00,VWS V15.00,2017-12-16 06:32:00,
2017-12-16 00:33:00,38.0,33.3,29.82,NNW,344,7.0,7.0,83,0.00,,---,0.00,VWS V15.00,2017-12-16 06:33:00,
2017-12-16 00:37:00,38.1,33.1,29.82,WNW,300,6.0,9.0,82,0.00,,---,0.00,VWS V15.00,2017-12-16 06:37:00,
2017-12-16 00:42:00,38.1,33.1,29.82,WNW,302,4.0,6.0,82,0.00,,---,0.00,VWS V15.00,2017-12-16 06:42:00,
2017-12-16 00:47:00,37.9,33.2,29.82,NW,308,2.0,5.0,83,0.00,,---,0.00,VWS V15.00,2017-12-16 06:47:00,
2017-12-16 00:48:00,37.9,33.2,29.82,NW,308,3.0,5.0,83,0.00,,---,0.00,VWS V15.00,2017-12-16 06:48:00,
2017-12-16 00:53:00,37.7,33.0,29.82,NW,317,4.0,8.0,83,0.00,,---,0.00,VWS V15.00,2017-12-16 06:53:00,
2017-12-16 00:58:00,37.6,32.9,29.83,NW,310,8.0,10.0,83,0.00,,---,0.00,VWS V15.00,2017-12-16 06:58:00,
2017-12-16 00:59:00,37.5,32.8,29.83,NW,309,10.0,11.0,83,0.00,,---,0.00,VWS V15.00,2017-12-16 06:59:00,
2017-12-16 01:04:00,37.6,32.6,29.83,NW,304,5.0,9.0,82,0.00,,---,0.00,VWS V15.00,2017-12-16 07:04:00,
2017-12-16 01:06:00,37.6,32.6,29.83,NW,306,3.0,9.0,82,0.00,,---,0.00,VWS V15.00,2017-12-16 07:06:00,
2017-12-16 01:09:00,37.6,32.6,29.83,NW,310,4.0,8.0,82,0.00,,---,0.00,VWS V15.00,2017-12-16 07:09:00,
2017-12-16 01:12:00,37.5,32.5,29.83,WNW,301,7.0,8.0,82,0.00,,---,0.00,VWS V15.00,2017-12-16 07:12:00,
2017-12-16 01:14:00,37.5,32.5,29.83,WNW,302,5.0,7.0,82,0.00,,---,0.00,VWS V15.00,2017-12-16 07:14:00,
2017-12-16 01:17:00,37.4,32.4,29.83,WNW,301,7.0,7.0,82,0.00,,---,0.00,VWS V15.00,2017-12-16 07:17:00,
2017-12-16 01:19:00,37.3,32.3,29.83,WNW,296,7.0,7.0,82,0.00,,---,0.00,VWS V15.00,2017-12-16 07:19:00,
2017-12-16 01:24:00,37.2,32.2,29.83,WNW,297,5.0,6.0,82,0.00,,---,0.00,VWS V15.00,2017-12-16 07:24:00,
2017-12-16 01:25:00,37.2,32.2,29.83,WNW,298,3.0,6.0,82,0.00,,---,0.00,VWS V15.00,2017-12-16 07:25:00,
2017-12-16 01:30:00,37.1,32.1,29.84,WNW,295,6.0,6.0,82,0.00,,---,0.00,VWS V15.00,2017-12-16 07:30:00,
2017-12-16 01:32:00,37.0,32.0,29.84,WNW,294,4.0,6.0,82,0.00,,---,0.00,VWS V15.00,2017-12-16 07:32:00,
2017-12-16 01:35:00,37.0,32.0,29.84,WNW,298,3.0,5.0,82,0.00,,---,0.00,VWS V15.00,2017-12-16 07:35:00,
2017-12-16 01:40:00,36.9,31.9,29.84,WNW,300,3.0,6.0,82,0.00,,---,0.00,VWS V15.00,2017-12-16 07:40:00,
2017-12-16 01:45:00,36.7,31.7,29.83,NW,309,8.0,8.0,82,0.00,,---,0.00,VWS V15.00,2017-12-16 07:45:00,
2017-12-16 01:46:00,36.7,31.7,29.83,WNW,302,9.0,9.0,82,0.00,,---,0.00,VWS V15.00,2017-12-16 07:46:00,
2017-12-16 01:51:00,36.7,31.1,29.84,WNW,291,4.0,11.0,80,0.00,,---,0.00,VWS V15.00,2017-12-16 07:51:00,
2017-12-16 01:52:00,36.7,31.1,29.84,NW,309,4.0,6.0,80,0.00,,---,0.00,VWS V15.00,2017-12-16 07:52:00,
2017-12-16 01:57:00,36.8,31.2,29.84,NW,306,3.0,4.0,80,0.00,,---,0.00,VWS V15.00,2017-12-16 07:57:00,
2017-12-16 02:00:00,36.8,31.2,29.84,NW,309,5.0,7.0,80,0.00,,---,0.00,VWS V15.00,2017-12-16 08:00:00,
2017-12-16 02:02:00,36.8,30.9,29.84,West,279,5.0,9.0,79,0.00,,---,0.00,VWS V15.00,2017-12-16 08:02:00,
2017-12-16 02:07:00,36.5,30.9,29.85,West,274,3.0,3.0,80,0.00,,---,0.00,VWS V15.00,2017-12-16 08:07:00,
2017-12-16 02:08:00,36.5,30.9,29.85,West,274,3.0,5.0,80,0.00,,---,0.00,VWS V15.00,2017-12-16 08:08:00,
2017-12-16 02:13:00,36.2,30.9,29.85,WNW,287,6.0,8.0,81,0.00,,---,0.00,VWS V15.00,2017-12-16 08:13:00,
2017-12-16 02:18:00,35.9,31.0,29.85,WNW,295,3.0,7.0,82,0.00,,---,0.00,VWS V15.00,2017-12-16 08:18:00,
2017-12-16 02:19:00,35.8,30.9,29.85,WNW,290,4.0,9.0,82,0.00,,---,0.00,VWS V15.00,2017-12-16 08:19:00,
2017-12-16 02:22:00,35.7,30.8,29.86,WNW,300,8.0,9.0,82,0.00,,---,0.00,VWS V15.00,2017-12-16 08:22:00,
2017-12-16 02:24:00,35.6,30.7,29.86,NW,304,8.0,8.0,82,0.00,,---,0.00,VWS V15.00,2017-12-16 08:24:00,
2017-12-16 02:27:00,35.6,30.7,29.86,WNW,297,7.0,7.0,82,0.00,,---,0.00,VWS V15.00,2017-12-16 08:27:00,
2017-12-16 02:31:00,35.5,30.6,29.86,WNW,298,5.0,8.0,82,0.00,,---,0.00,VWS V15.00,2017-12-16 08:31:00,
2017-12-16 02:33:00,35.4,30.8,29.86,WNW,302,6.0,7.0,83,0.00,,---,0.00,VWS V15.00,2017-12-16 08:33:00,
2017-12-16 02:35:00,35.3,30.7,29.86,NW,304,9.0,10.0,83,0.00,,---,0.00,VWS V15.00,2017-12-16 08:35:00,
2017-12-16 02:36:00,35.3,30.7,29.86,WNW,292,6.0,7.0,83,0.00,,---,0.00,VWS V15.00,2017-12-16 08:36:00,
2017-12-16 02:41:00,35.1,30.5,29.87,NNW,336,4.0,7.0,83,0.00,,---,0.00,VWS V15.00,2017-12-16 08:41:00,
2017-12-16 02:42:00,35.1,30.5,29.87,NW,313,6.0,10.0,83,0.00,,---,0.00,VWS V15.00,2017-12-16 08:42:00,
2017-12-16 02:44:00,35.1,30.2,29.87,WNW,300,11.0,11.0,82,0.00,,---,0.00,VWS V15.00,2017-12-16 08:44:00,
2017-12-16 02:48:00,35.1,30.2,29.87,NW,304,13.0,13.0,82,0.00,,---,0.00,VWS V15.00,2017-12-16 08:48:00,
2017-12-16 02:50:00,35.1,30.2,29.87,West,275,8.0,12.0,82,0.00,,---,0.00,VWS V15.00,2017-12-16 08:50:00,
2017-12-16 02:55:00,35.1,30.2,29.88,WNW,288,12.0,12.0,82,0.00,,---,0.00,VWS V15.00,2017-12-16 08:55:00,
2017-12-16 02:57:00,35.1,30.2,29.88,WNW,300,8.0,9.0,82,0.00,,---,0.00,VWS V15.00,2017-12-16 08:57:00,
2017-12-16 03:00:00,35.1,30.2,29.88,NW,317,8.0,13.0,82,0.00,,---,0.00,VWS V15.00,2017-12-16 09:00:00,
2017-12-16 03:05:00,35.1,29.9,29.88,NW,315,6.0,8.0,81,0.00,,---,0.00,VWS V15.00,2017-12-16 09:05:00,
2017-12-16 03:10:00,35.2,30.0,29.88,NW,323,7.0,9.0,81,0.00,,---,0.00,VWS V15.00,2017-12-16 09:10:00,
2017-12-16 03:14:00,35.2,30.0,29.89,NW,310,4.0,6.0,81,0.00,,---,0.00,VWS V15.00,2017-12-16 09:14:00,
2017-12-16 03:16:00,35.2,30.0,29.89,WNW,294,10.0,10.0,81,0.00,,---,0.00,VWS V15.00,2017-12-16 09:16:00,
2017-12-16 03:21:00,35.2,29.7,29.89,NW,311,8.0,11.0,80,0.00,,---,0.00,VWS V15.00,2017-12-16 09:21:00,
2017-12-16 03:26:00,35.2,29.7,29.89,NW,314,5.0,5.0,80,0.00,,---,0.00,VWS V15.00,2017-12-16 09:26:00,
2017-12-16 03:31:00,35.0,29.5,29.89,NW,312,9.0,12.0,80,0.00,,---,0.00,VWS V15.00,2017-12-16 09:31:00,
2017-12-16 03:32:00,35.0,29.5,29.89,NW,306,10.0,13.0,80,0.00,,---,0.00,VWS V15.00,2017-12-16 09:32:00,
2017-12-16 03:36:00,34.8,29.3,29.89,NW,319,8.0,10.0,80,0.00,,---,0.00,VWS V15.00,2017-12-16 09:36:00,
2017-12-16 03:37:00,34.7,29.2,29.89,NW,315,5.0,6.0,80,0.00,,---,0.00,VWS V15.00,2017-12-16 09:37:00,
2017-12-16 03:42:00,34.5,29.0,29.89,WNW,302,7.0,9.0,80,0.00,,---,0.00,VWS V15.00,2017-12-16 09:42:00,
2017-12-16 03:44:00,34.4,28.9,29.89,NNW,346,8.0,11.0,80,0.00,,---,0.00,VWS V15.00,2017-12-16 09:44:00,
2017-12-16 03:48:00,34.3,28.8,29.89,NNW,332,8.0,8.0,80,0.00,,---,0.00,VWS V15.00,2017-12-16 09:48:00,
2017-12-16 03:53:00,34.1,28.6,29.89,NW,319,8.0,9.0,80,0.00,,---,0.00,VWS V15.00,2017-12-16 09:53:00,
2017-12-16 03:54:00,34.1,28.6,29.89,NW,315,5.0,12.0,80,0.00,,---,0.00,VWS V15.00,2017-12-16 09:54:00,
2017-12-16 03:58:00,33.9,28.4,29.89,WNW,291,11.0,11.0,80,0.00,,---,0.00,VWS V15.00,2017-12-16 09:58:00,
2017-12-16 04:03:00,33.6,28.1,29.89,NW,322,2.0,3.0,80,0.00,,---,0.00,VWS V15.00,2017-12-16 10:03:00,
2017-12-16 04:07:00,33.4,28.2,29.89,WNW,302,9.0,9.0,81,0.00,,---,0.00,VWS V15.00,2017-12-16 10:07:00,
2017-12-16 04:10:00,33.4,28.2,29.89,WNW,292,6.0,11.0,81,0.00,,---,0.00,VWS V15.00,2017-12-16 10:10:00,
2017-12-16 04:13:00,33.3,28.1,29.89,NW,308,4.0,5.0,81,0.00,,---,0.00,VWS V15.00,2017-12-16 10:13:00,
2017-12-16 04:16:00,33.2,28.0,29.89,NW,319,8.0,13.0,81,0.00,,---,0.00,VWS V15.00,2017-12-16 10:16:00,
2017-12-16 04:19:00,33.2,28.0,29.89,NW,306,8.0,8.0,81,0.00,,---,0.00,VWS V15.00,2017-12-16 10:19:00,
2017-12-16 04:21:00,33.2,28.0,29.89,NW,304,13.0,13.0,81,0.00,,---,0.00,VWS V15.00,2017-12-16 10:21:00,
2017-12-16 04:26:00,33.1,27.9,29.90,NW,319,10.0,11.0,81,0.00,,---,0.00,VWS V15.00,2017-12-16 10:26:00,
2017-12-16 04:30:00,33.0,27.8,29.89,WNW,303,6.0,11.0,81,0.00,,---,0.00,VWS V15.00,2017-12-16 10:30:00,
2017-12-16 04:31:00,33.0,27.8,29.90,NW,315,6.0,7.0,81,0.00,,---,0.00,VWS V15.00,2017-12-16 10:31:00,
2017-12-16 04:36:00,33.0,27.5,29.90,NW,321,5.0,9.0,80,0.00,,---,0.00,VWS V15.00,2017-12-16 10:36:00,
2017-12-16 04:37:00,33.0,27.5,29.90,NW,319,7.0,9.0,80,0.00,,---,0.00,VWS V15.00,2017-12-16 10:37:00,
2017-12-16 04:42:00,33.0,27.5,29.90,West,277,10.0,10.0,80,0.00,,---,0.00,VWS V15.00,2017-12-16 10:42:00,
2017-12-16 04:47:00,32.9,27.4,29.90,WNW,298,4.0,11.0,80,0.00,,---,0.00,VWS V15.00,2017-12-16 10:47:00,
2017-12-16 04:48:00,32.8,27.3,29.90,WNW,289,12.0,14.0,80,0.00,,---,0.00,VWS V15.00,2017-12-16 10:48:00,
2017-12-16 04:52:00,32.8,27.3,29.90,NW,312,4.0,6.0,80,0.00,,---,0.00,VWS V15.00,2017-12-16 10:52:00,
2017-12-16 04:57:00,32.6,27.1,29.90,WNW,302,8.0,8.0,80,0.00,,---,0.00,VWS V15.00,2017-12-16 10:57:00,
2017-12-16 04:58:00,32.6,27.1,29.90,WNW,296,10.0,10.0,80,0.00,,---,0.00,VWS V15.00,2017-12-16 10:58:00,
2017-12-16 04:59:00,32.5,27.3,29.90,WNW,299,9.0,10.0,81,0.00,,---,0.00,VWS V15.00,2017-12-16 10:59:00,
2017-12-16 05:03:00,32.4,27.2,29.91,WNW,284,8.0,11.0,81,0.00,,---,0.00,VWS V15.00,2017-12-16 11:03:00,
2017-12-16 05:08:00,32.3,26.8,29.91,WNW,301,8.0,10.0,80,0.00,,---,0.00,VWS V15.00,2017-12-16 11:08:00,
2017-12-16 05:10:00,32.3,27.1,29.91,NW,308,3.0,8.0,81,0.00,,---,0.00,VWS V15.00,2017-12-16 11:10:00,
2017-12-16 05:13:00,32.1,26.9,29.91,NW,306,5.0,7.0,81,0.00,,---,0.00,VWS V15.00,2017-12-16 11:13:00,
2017-12-16 05:15:00,32.1,26.9,29.91,WNW,298,8.0,10.0,81,0.00,,---,0.00,VWS V15.00,2017-12-16 11:15:00,
2017-12-16 05:19:00,31.9,26.7,29.91,NW,310,5.0,7.0,81,0.00,,---,0.00,VWS V15.00,2017-12-16 11:19:00,
2017-12-16 05:24:00,31.7,26.5,29.91,WNW,294,8.0,14.0,81,0.00,,---,0.00,VWS V15.00,2017-12-16 11:24:00,
2017-12-16 05:25:00,31.6,26.5,29.91,NW,320,8.0,13.0,81,0.00,,---,0.00,VWS V15.00,2017-12-16 11:25:00,
2017-12-16 05:28:00,31.6,26.5,29.91,West,265,4.0,7.0,81,0.00,,---,0.00,VWS V15.00,2017-12-16 11:28:00,
2017-12-16 05:30:00,31.5,26.4,29.91,NW,310,5.0,9.0,81,0.00,,---,0.00,VWS V15.00,2017-12-16 11:30:00,
2017-12-16 05:35:00,31.5,26.4,29.92,NW,306,9.0,10.0,81,0.00,,---,0.00,VWS V15.00,2017-12-16 11:35:00,
2017-12-16 05:36:00,31.5,26.4,29.92,NW,310,12.0,12.0,81,0.00,,---,0.00,VWS V15.00,2017-12-16 11:36:00,
2017-12-16 05:41:00,31.4,26.2,29.92,NW,311,12.0,12.0,81,0.00,,---,0.00,VWS V15.00,2017-12-16 11:41:00,
2017-12-16 05:42:00,31.4,26.2,29.92,NW,316,6.0,10.0,81,0.00,,---,0.00,VWS V15.00,2017-12-16 11:42:00,
2017-12-16 05:47:00,31.5,26.4,29.93,NW,315,13.0,13.0,81,0.00,,---,0.00,VWS V15.00,2017-12-16 11:47:00,
2017-12-16 05:50:00,31.5,26.4,29.93,WNW,298,5.0,9.0,81,0.00,,---,0.00,VWS V15.00,2017-12-16 11:50:00,
2017-12-16 05:52:00,31.4,26.2,29.93,WNW,291,8.0,8.0,81,0.00,,---,0.00,VWS V15.00,2017-12-16 11:52:00,
2017-12-16 05:56:00,31.3,26.2,29.93,WNW,296,7.0,10.0,81,0.00,,---,0.00,VWS V15.00,2017-12-16 11:56:00,
2017-12-16 05:59:00,31.3,26.2,29.93,WNW,299,6.0,6.0,81,0.00,,---,0.00,VWS V15.00,2017-12-16 11:59:00,
2017-12-16 06:04:00,31.4,26.2,29.94,WNW,300,6.0,8.0,81,0.00,,---,0.00,VWS V15.00,2017-12-16 12:04:00,
2017-12-16 06:09:00,31.6,26.5,29.94,NW,319,4.0,4.0,81,0.00,,---,0.00,VWS V15.00,2017-12-16 12:09:00,
2017-12-16 06:14:00,31.7,26.5,29.95,NW,304,3.0,4.0,81,0.00,,---,0.00,VWS V15.00,2017-12-16 12:14:00,
2017-12-16 06:16:00,31.8,26.6,29.95,NW,304,2.0,3.0,81,0.00,,---,0.00,VWS V15.00,2017-12-16 12:16:00,
2017-12-16 06:20:00,32.0,26.8,29.95,NW,324,3.0,5.0,81,0.00,,---,0.00,VWS V15.00,2017-12-16 12:20:00,
2017-12-16 06:25:00,32.0,26.5,29.95,WNW,301,4.0,6.0,80,0.00,,---,0.00,VWS V15.00,2017-12-16 12:25:00,
2017-12-16 06:30:00,31.9,26.4,29.96,NW,306,3.0,6.0,80,0.00,,---,0.00,VWS V15.00,2017-12-16 12:30:00,
2017-12-16 06:32:00,31.8,26.4,29.96,NW,305,6.0,7.0,80,0.00,,---,0.00,VWS V15.00,2017-12-16 12:32:00,
2017-12-16 06:36:00,31.6,26.1,29.96,NW,305,5.0,6.0,80,0.00,,---,0.00,VWS V15.00,2017-12-16 12:36:00,
2017-12-16 06:41:00,31.2,25.8,29.96,NW,311,3.0,8.0,80,0.00,,---,0.00,VWS V15.00,2017-12-16 12:41:00,
2017-12-16 06:44:00,31.0,25.9,29.96,NW,320,4.0,5.0,81,0.00,,---,0.00,VWS V15.00,2017-12-16 12:44:00,
2017-12-16 06:46:00,30.8,25.4,29.96,NW,323,5.0,7.0,80,0.00,,---,0.00,VWS V15.00,2017-12-16 12:46:00,
2017-12-16 06:50:00,30.6,25.5,29.96,WNW,302,4.0,4.0,81,0.00,,---,0.00,VWS V15.00,2017-12-16 12:50:00,
2017-12-16 06:51:00,30.5,25.4,29.96,WNW,300,8.0,11.0,81,0.00,,---,0.00,VWS V15.00,2017-12-16 12:51:00,
2017-12-16 06:56:00,30.3,25.2,29.97,NW,315,5.0,8.0,81,0.00,,---,0.00,VWS V15.00,2017-12-16 12:56:00,
2017-12-16 06:57:00,30.3,25.2,29.97,NW,313,4.0,8.0,81,0.00,,---,0.00,VWS V15.00,2017-12-16 12:57:00,
2017-12-16 06:59:00,30.2,25.1,29.97,NW,311,4.0,6.0,81,0.00,,---,0.00,VWS V15.00,2017-12-16 12:59:00,
2017-12-16 07:02:00,30.0,24.9,29.96,NW,323,7.0,7.0,81,0.00,,---,0.00,VWS V15.00,2017-12-16 13:02:00,
2017-12-16 07:04:00,30.0,24.9,29.97,NW,313,5.0,6.0,81,0.00,,---,0.00,VWS V15.00,2017-12-16 13:04:00,
2017-12-16 07:08:00,29.8,24.7,29.96,NW,316,4.0,4.0,81,0.00,,---,0.00,VWS V15.00,2017-12-16 13:08:00,
2017-12-16 07:13:00,29.6,24.5,29.97,NW,312,4.0,7.0,81,0.00,,---,0.00,VWS V15.00,2017-12-16 13:13:00,
2017-12-16 07:17:00,29.4,24.3,29.97,NW,317,5.0,6.0,81,0.00,,---,0.00,VWS V15.00,2017-12-16 13:17:00,
2017-12-16 07:18:00,29.4,24.3,29.97,NW,307,7.0,7.0,81,0.00,,---,0.00,VWS V15.00,2017-12-16 13:18:00,
2017-12-16 07:23:00,29.2,24.1,29.97,WNW,300,5.0,9.0,81,0.00,,---,0.00,VWS V15.00,2017-12-16 13:23:00,
2017-12-16 07:24:00,29.2,24.1,29.97,NW,305,5.0,6.0,81,0.00,,---,0.00,VWS V15.00,2017-12-16 13:24:00,
2017-12-16 07:29:00,29.2,24.1,29.98,WNW,298,10.0,10.0,81,0.00,,---,0.00,VWS V15.00,2017-12-16 13:29:00,
2017-12-16 07:34:00,29.0,23.9,29.98,WNW,302,3.0,9.0,81,0.00,,---,0.00,VWS V15.00,2017-12-16 13:34:00,
2017-12-16 07:35:00,29.0,23.9,29.98,NW,306,9.0,10.0,81,0.00,,---,0.00,VWS V15.00,2017-12-16 13:35:00,
2017-12-16 07:40:00,29.0,23.9,29.98,WNW,296,8.0,9.0,81,0.00,,---,0.00,VWS V15.00,2017-12-16 13:40:00,
2017-12-16 07:41:00,29.0,23.9,29.98,NW,317,9.0,9.0,81,0.00,,---,0.00,VWS V15.00,2017-12-16 13:41:00,
2017-12-16 07:45:00,28.9,23.8,29.98,NW,317,2.0,6.0,81,0.00,,---,0.00,VWS V15.00,2017-12-16 13:45:00,
2017-12-16 07:50:00,28.8,23.7,29.99,WNW,284,3.0,7.0,81,0.00,,---,0.00,VWS V15.00,2017-12-16 13:50:00,
2017-12-16 07:55:00,28.5,23.4,29.99,WNW,284,2.0,4.0,81,0.00,,---,0.00,VWS V15.00,2017-12-16 13:55:00,
2017-12-16 07:58:00,28.2,23.1,29.99,WNW,283,2.0,7.0,81,0.00,,---,0.00,VWS V15.00,2017-12-16 13:58:00,
2017-12-16 08:00:00,28.0,22.9,30.00,WNW,283,4.0,4.0,81,0.00,,---,0.00,VWS V15.00,2017-12-16 14:00:00,
2017-12-16 08:05:00,27.4,22.6,30.00,WNW,283,2.0,2.0,82,0.00,,---,0.00,VWS V15.00,2017-12-16 14:05:00,
2017-12-16 08:06:00,27.4,22.6,30.00,WNW,283,2.0,2.0,82,0.00,,---,0.00,VWS V15.00,2017-12-16 14:06:00,
2017-12-16 08:08:00,27.2,22.4,30.00,WNW,283,1.0,3.0,82,0.00,,---,0.00,VWS V15.00,2017-12-16 14:08:00,
2017-12-16 08:11:00,27.0,22.5,30.00,WNW,283,2.0,2.0,83,0.00,,---,0.00,VWS V15.00,2017-12-16 14:11:00,
2017-12-16 08:16:00,26.8,22.3,30.01,WNW,283,2.0,3.0,83,0.00,,---,0.00,VWS V15.00,2017-12-16 14:16:00,
2017-12-16 08:17:00,26.8,22.3,30.01,WNW,283,2.0,2.0,83,0.00,,---,0.00,VWS V15.00,2017-12-16 14:17:00,
2017-12-16 08:20:00,26.5,22.0,30.01,WNW,283,2.0,2.0,83,0.00,,---,0.00,VWS V15.00,2017-12-16 14:20:00,
2017-12-16 08:22:00,26.4,22.0,30.01,WNW,283,0.0,0.0,83,0.00,,---,0.00,VWS V15.00,2017-12-16 14:22:00,
2017-12-16 08:27:00,26.2,22.0,30.01,WNW,283,0.0,0.0,84,0.00,,---,0.00,VWS V15.00,2017-12-16 14:27:00,
2017-12-16 08:28:00,26.1,21.9,30.01,WNW,283,0.0,0.0,84,0.00,,---,0.00,VWS V15.00,2017-12-16 14:28:00,
2017-12-16 08:32:00,25.8,21.6,30.01,WNW,283,0.0,2.0,84,0.00,,---,0.00,VWS V15.00,2017-12-16 14:32:00,
2017-12-16 08:37:00,25.6,21.5,30.01,WNW,283,1.0,3.0,84,0.00,,---,0.00,VWS V15.00,2017-12-16 14:37:00,
2017-12-16 08:38:00,25.6,21.5,30.01,WNW,283,3.0,3.0,84,0.00,,---,0.00,VWS V15.00,2017-12-16 14:38:00,
2017-12-16 08:43:00,25.5,21.4,30.01,WNW,283,1.0,1.0,84,0.00,,---,0.00,VWS V15.00,2017-12-16 14:43:00,
2017-12-16 08:46:00,25.4,21.2,30.01,WNW,283,2.0,3.0,84,0.00,,---,0.00,VWS V15.00,2017-12-16 14:46:00,
2017-12-16 08:48:00,25.4,21.5,30.01,WNW,283,2.0,2.0,85,0.00,,---,0.00,VWS V15.00,2017-12-16 14:48:00,
2017-12-16 08:53:00,25.4,21.5,30.02,WNW,283,0.0,0.0,85,0.00,,---,0.00,VWS V15.00,2017-12-16 14:53:00,
2017-12-16 08:54:00,25.3,21.4,30.02,WNW,283,0.0,2.0,85,0.00,,---,0.00,VWS V15.00,2017-12-16 14:54:00,
2017-12-16 08:58:00,25.3,21.1,30.02,WNW,283,2.0,3.0,84,0.00,,---,0.00,VWS V15.00,2017-12-16 14:58:00,
2017-12-16 09:00:00,25.3,21.1,30.02,WNW,283,1.0,4.0,84,0.00,,---,0.00,VWS V15.00,2017-12-16 15:00:00,
2017-12-16 09:03:00,25.3,21.1,30.02,WNW,283,1.0,2.0,84,0.00,,---,0.00,VWS V15.00,2017-12-16 15:03:00,
2017-12-16 09:05:00,25.3,21.1,30.02,WNW,283,0.0,2.0,84,0.00,,---,0.00,VWS V15.00,2017-12-16 15:05:00,
2017-12-16 09:10:00,25.1,21.0,30.03,WNW,283,0.0,2.0,84,0.00,,---,0.00,VWS V15.00,2017-12-16 15:10:00,
2017-12-16 09:11:00,25.1,21.0,30.03,WNW,283,0.0,0.0,84,0.00,,---,0.00,VWS V15.00,2017-12-16 15:11:00,
2017-12-16 09:12:00,25.1,21.0,30.03,WNW,283,1.0,1.0,84,0.00,,---,0.00,VWS V15.00,2017-12-16 15:12:00,
2017-12-16 09:16:00,25.0,21.1,30.03,WNW,283,0.0,3.0,85,0.00,,---,0.00,VWS V15.00,2017-12-16 15:16:00,
2017-12-16 09:18:00,25.1,21.2,30.04,West,262,1.0,3.0,85,0.00,,---,0.00,VWS V15.00,2017-12-16 15:18:00,
2017-12-16 09:22:00,25.4,21.5,30.04,West,262,1.0,1.0,85,0.00,,---,0.00,VWS V15.00,2017-12-16 15:22:00,
2017-12-16 09:27:00,25.8,21.9,30.04,WSW,257,3.0,5.0,85,0.00,,---,0.00,VWS V15.00,2017-12-16 15:27:00,
2017-12-16 09:32:00,26.2,22.0,30.05,WSW,257,1.0,6.0,84,0.00,,---,0.00,VWS V15.00,2017-12-16 15:32:00,
2017-12-16 09:33:00,26.3,22.1,30.05,WSW,257,4.0,4.0,84,0.00,,---,0.00,VWS V15.00,2017-12-16 15:33:00,
2017-12-16 09:36:00,26.4,22.0,30.05,WSW,257,2.0,3.0,83,0.00,,---,0.00,VWS V15.00,2017-12-16 15:36:00,
2017-12-16 09:38:00,26.4,22.0,30.05,WSW,257,2.0,3.0,83,0.00,,---,0.00,VWS V15.00,2017-12-16 15:38:00,
2017-12-16 09:43:00,26.6,21.9,30.05,WSW,256,1.0,1.0,82,0.00,,---,0.00,VWS V15.00,2017-12-16 15:43:00,
2017-12-16 09:48:00,26.7,22.0,30.06,WSW,256,1.0,2.0,82,0.00,,---,0.00,VWS V15.00,2017-12-16 15:48:00,
2017-12-16 09:51:00,26.7,22.0,30.06,WSW,256,2.0,4.0,82,0.00,,---,0.00,VWS V15.00,2017-12-16 15:51:00,
2017-12-16 09:56:00,26.7,22.0,30.06,WSW,256,2.0,4.0,82,0.00,,---,0.00,VWS V15.00,2017-12-16 15:56:00,
2017-12-16 10:01:00,26.7,22.0,30.06,WSW,256,3.0,4.0,82,0.00,,---,0.00,VWS V15.00,2017-12-16 16:01:00,
2017-12-16 10:02:00,26.7,22.0,30.06,WSW,256,3.0,4.0,82,0.00,,---,0.00,VWS V15.00,2017-12-16 16:02:00,
2017-12-16 10:07:00,26.8,22.0,30.06,WSW,256,2.0,3.0,82,0.00,,---,0.00,VWS V15.00,2017-12-16 16:07:00,
2017-12-16 10:11:00,26.9,22.1,30.06,WSW,256,4.0,5.0,82,0.00,,---,0.00,VWS V15.00,2017-12-16 16:11:00,
2017-12-16 10:12:00,27.0,22.2,30.06,WSW,257,2.0,4.0,82,0.00,,---,0.00,VWS V15.00,2017-12-16 16:12:00,
2017-12-16 10:16:00,27.1,22.1,30.07,WSW,257,4.0,6.0,81,0.00,,---,0.00,VWS V15.00,2017-12-16 16:16:00,
2017-12-16 10:18:00,27.1,22.1,30.07,WSW,257,2.0,3.0,81,0.00,,---,0.00,VWS V15.00,2017-12-16 16:18:00,
2017-12-16 10:23:00,27.3,22.2,30.07,WSW,257,4.0,4.0,81,0.00,,---,0.00,VWS V15.00,2017-12-16 16:23:00,
2017-12-16 10:24:00,27.3,22.2,30.07,WSW,257,0.0,4.0,81,0.00,,---,0.00,VWS V15.00,2017-12-16 16:24:00,
2017-12-16 10:28:00,27.5,22.7,30.07,WSW,257,0.0,0.0,82,0.00,,---,0.00,VWS V15.00,2017-12-16 16:28:00,
2017-12-16 10:29:00,27.6,22.8,30.07,WSW,257,0.0,2.0,82,0.00,,---,0.00,VWS V15.00,2017-12-16 16:29:00,
2017-12-16 10:34:00,28.0,22.9,30.08,WSW,257,0.0,1.0,81,0.00,,---,0.00,VWS V15.00,2017-12-16 16:34:00,
2017-12-16 10:36:00,28.1,23.0,30.08,WSW,257,2.0,2.0,81,0.00,,---,0.00,VWS V15.00,2017-12-16 16:36:00,
2017-12-16 10:41:00,28.6,23.2,30.08,WSW,257,0.0,0.0,80,0.00,,---,0.00,VWS V15.00,2017-12-16 16:41:00,
2017-12-16 10:42:00,28.7,23.3,30.08,WSW,257,1.0,3.0,80,0.00,,---,0.00,VWS V15.00,2017-12-16 16:42:00,
2017-12-16 10:47:00,29.3,23.6,30.08,WSW,257,3.0,3.0,79,0.00,,---,0.00,VWS V15.00,2017-12-16 16:47:00,
2017-12-16 10:52:00,29.8,23.5,30.08,WSW,257,1.0,3.0,77,0.00,,---,0.00,VWS V15.00,2017-12-16 16:52:00,
2017-12-16 10:57:00,30.2,23.9,30.08,WSW,257,0.0,0.0,77,0.00,,---,0.00,VWS V15.00,2017-12-16 16:57:00,
2017-12-16 10:58:00,30.2,23.9,30.08,WSW,257,0.0,0.0,77,0.00,,---,0.00,VWS V15.00,2017-12-16 16:58:00,
2017-12-16 11:03:00,30.4,23.8,30.08,WSW,257,1.0,3.0,76,0.00,,---,0.00,VWS V15.00,2017-12-16 17:03:00,
2017-12-16 11:05:00,30.4,23.4,30.08,WSW,257,0.0,0.0,75,0.00,,---,0.00,VWS V15.00,2017-12-16 17:05:00,
2017-12-16 11:09:00,30.5,23.9,30.08,WSW,257,2.0,3.0,76,0.00,,---,0.00,VWS V15.00,2017-12-16 17:09:00,
2017-12-16 11:13:00,30.6,23.6,30.08,WSW,257,3.0,4.0,75,0.00,,---,0.00,VWS V15.00,2017-12-16 17:13:00,
2017-12-16 11:15:00,30.6,24.0,30.08,WSW,257,4.0,4.0,76,0.00,,---,0.00,VWS V15.00,2017-12-16 17:15:00,
2017-12-16 11:18:00,30.8,24.1,30.08,WSW,257,3.0,3.0,76,0.00,,---,0.00,VWS V15.00,2017-12-16 17:18:00,
2017-12-16 11:20:00,30.9,23.9,30.08,WSW,257,2.0,3.0,75,0.00,,---,0.00,VWS V15.00,2017-12-16 17:20:00,
2017-12-16 11:22:00,30.8,23.8,30.08,WSW,257,3.0,3.0,75,0.00,,---,0.00,VWS V15.00,2017-12-16 17:22:00,
2017-12-16 11:26:00,30.7,23.7,30.08,WSW,257,2.0,4.0,75,0.00,,---,0.00,VWS V15.00,2017-12-16 17:26:00,
2017-12-16 11:31:00,30.8,23.8,30.08,WSW,257,4.0,4.0,75,0.00,,---,0.00,VWS V15.00,2017-12-16 17:31:00,
2017-12-16 11:33:00,30.8,23.8,30.08,WSW,257,4.0,5.0,75,0.00,,---,0.00,VWS V15.00,2017-12-16 17:33:00,
2017-12-16 11:37:00,31.0,24.3,30.08,WSW,257,3.0,5.0,76,0.00,,---,0.00,VWS V15.00,2017-12-16 17:37:00,
2017-12-16 11:40:00,31.2,24.2,30.08,WSW,257,2.0,2.0,75,0.00,,---,0.00,VWS V15.00,2017-12-16 17:40:00,
2017-12-16 11:42:00,31.3,24.3,30.08,WSW,257,0.0,0.0,75,0.00,,---,0.00,VWS V15.00,2017-12-16 17:42:00,
2017-12-16 11:46:00,31.4,24.1,30.08,WSW,257,2.0,4.0,74,0.00,,---,0.00,VWS V15.00,2017-12-16 17:46:00,
2017-12-16 11:48:00,31.4,24.1,30.08,WSW,257,3.0,4.0,74,0.00,,---,0.00,VWS V15.00,2017-12-16 17:48:00,
2017-12-16 11:51:00,31.5,23.9,30.08,WSW,257,4.0,5.0,73,0.00,,---,0.00,VWS V15.00,2017-12-16 17:51:00,
2017-12-16 11:53:00,31.5,23.9,30.08,WSW,257,4.0,4.0,73,0.00,,---,0.00,VWS V15.00,2017-12-16 17:53:00,
2017-12-16 11:58:00,31.6,24.0,30.08,West,259,4.0,4.0,73,0.00,,---,0.00,VWS V15.00,2017-12-16 17:58:00,
2017-12-16 11:59:00,31.6,24.0,30.08,West,259,4.0,5.0,73,0.00,,---,0.00,VWS V15.00,2017-12-16 17:59:00,
2017-12-16 12:04:00,31.9,24.2,30.08,West,259,5.0,5.0,73,0.00,,---,0.00,VWS V15.00,2017-12-16 18:04:00,
2017-12-16 12:05:00,32.0,24.0,30.08,West,259,4.0,6.0,72,0.00,,---,0.00,VWS V15.00,2017-12-16 18:05:00,
2017-12-16 12:10:00,32.2,24.2,30.07,West,261,5.0,7.0,72,0.00,,---,0.00,VWS V15.00,2017-12-16 18:10:00,
2017-12-16 12:11:00,32.2,23.9,30.07,West,261,4.0,4.0,71,0.00,,---,0.00,VWS V15.00,2017-12-16 18:11:00,
2017-12-16 12:12:00,32.3,24.3,30.07,West,261,6.0,6.0,72,0.00,,---,0.00,VWS V15.00,2017-12-16 18:12:00,
2017-12-16 12:16:00,32.5,24.5,30.07,West,266,2.0,5.0,72,0.00,,---,0.00,VWS V15.00,2017-12-16 18:16:00,
2017-12-16 12:21:00,32.8,24.5,30.07,NW,311,6.0,6.0,71,0.00,,---,0.00,VWS V15.00,2017-12-16 18:21:00,
2017-12-16 12:22:00,32.9,24.5,30.07,NW,309,4.0,4.0,71,0.00,,---,0.00,VWS V15.00,2017-12-16 18:22:00,
2017-12-16 12:24:00,33.0,25.0,30.07,NW,304,3.0,3.0,72,0.00,,---,0.00,VWS V15.00,2017-12-16 18:24:00,
2017-12-16 12:28:00,33.2,24.8,30.07,WNW,303,3.0,7.0,71,0.00,,---,0.00,VWS V15.00,2017-12-16 18:28:00,
2017-12-16 12:31:00,33.3,24.6,30.07,WNW,297,2.0,7.0,70,0.00,,---,0.00,VWS V15.00,2017-12-16 18:31:00,
2017-12-16 12:34:00,33.4,24.7,30.07,WNW,297,4.0,6.0,70,0.00,,---,0.00,VWS V15.00,2017-12-16 18:34:00,
2017-12-16 12:39:00,33.7,25.0,30.07,WNW,298,3.0,7.0,70,0.00,,---,0.00,VWS V15.00,2017-12-16 18:39:00,
2017-12-16 12:40:00,33.8,24.7,30.07,WNW,298,5.0,5.0,69,0.00,,---,0.00,VWS V15.00,2017-12-16 18:40:00,
2017-12-16 12:41:00,33.8,24.7,30.07,WNW,298,5.0,6.0,69,0.00,,---,0.00,VWS V15.00,2017-12-16 18:41:00,
2017-12-16 12:45:00,34.0,24.6,30.07,WNW,287,4.0,4.0,68,0.00,,---,0.00,VWS V15.00,2017-12-16 18:45:00,
2017-12-16 12:47:00,34.0,24.6,30.07,WNW,287,3.0,4.0,68,0.00,,---,0.00,VWS V15.00,2017-12-16 18:47:00,
2017-12-16 12:52:00,34.2,25.1,30.07,WNW,286,1.0,4.0,69,0.00,,---,0.00,VWS V15.00,2017-12-16 18:52:00,
2017-12-16 12:55:00,34.2,24.8,30.07,WNW,286,6.0,7.0,68,0.00,,---,0.00,VWS V15.00,2017-12-16 18:55:00,
2017-12-16 12:57:00,34.2,24.8,30.07,WNW,286,3.0,4.0,68,0.00,,---,0.00,VWS V15.00,2017-12-16 18:57:00,
2017-12-16 13:02:00,34.1,25.0,30.07,WNW,286,4.0,5.0,69,0.00,,---,0.00,VWS V15.00,2017-12-16 19:02:00,
2017-12-16 13:07:00,34.2,24.8,30.07,WNW,288,5.0,5.0,68,0.00,,---,0.00,VWS V15.00,2017-12-16 19:07:00,
2017-12-16 13:09:00,34.2,24.8,30.07,WNW,288,2.0,3.0,68,0.00,,---,0.00,VWS V15.00,2017-12-16 19:09:00,
2017-12-16 13:13:00,34.3,24.9,30.07,WNW,286,2.0,3.0,68,0.00,,---,0.00,VWS V15.00,2017-12-16 19:13:00,
2017-12-16 13:14:00,34.3,24.5,30.07,WNW,286,7.0,7.0,67,0.00,,---,0.00,VWS V15.00,2017-12-16 19:14:00,
2017-12-16 13:19:00,34.0,24.2,30.07,WNW,290,4.0,4.0,67,0.00,,---,0.00,VWS V15.00,2017-12-16 19:19:00,
2017-12-16 13:20:00,34.0,24.2,30.07,WNW,290,2.0,6.0,67,0.00,,---,0.00,VWS V15.00,2017-12-16 19:20:00,
2017-12-16 13:25:00,33.7,24.3,30.07,West,281,5.0,7.0,68,0.00,,---,0.00,VWS V15.00,2017-12-16 19:25:00,
2017-12-16 13:26:00,33.6,24.2,30.07,West,269,2.0,6.0,68,0.00,,---,0.00,VWS V15.00,2017-12-16 19:26:00,
2017-12-16 13:31:00,33.3,23.9,30.07,West,271,10.0,10.0,68,0.00,,---,0.00,VWS V15.00,2017-12-16 19:31:00,
2017-12-16 13:34:00,33.2,23.8,30.08,West,269,7.0,9.0,68,0.00,,---,0.00,VWS V15.00,2017-12-16 19:34:00,
2017-12-16 13:36:00,33.1,24.0,30.07,West,273,8.0,11.0,69,0.00,,---,0.00,VWS V15.00,2017-12-16 19:36:00,
2017-12-16 13:39:00,32.9,23.5,30.07,WSW,252,8.0,11.0,68,0.00,,---,0.00,VWS V15.00,2017-12-16 19:39:00,
2017-12-16 13:42:00,32.8,23.8,30.07,West,261,8.0,9.0,69,0.00,,---,0.00,VWS V15.00,2017-12-16 19:42:00,
2017-12-16 13:45:00,32.8,23.4,30.07,West,273,3.0,7.0,68,0.00,,---,0.00,VWS V15.00,2017-12-16 19:45:00,
2017-12-16 13:47:00,32.8,23.8,30.07,West,280,5.0,5.0,69,0.00,,---,0.00,VWS V15.00,2017-12-16 19:47:00,
2017-12-16 13:52:00,32.9,23.5,30.07,West,277,7.0,9.0,68,0.00,,---,0.00,VWS V15.00,2017-12-16 19:52:00,
2017-12-16 13:55:00,33.0,23.6,30.07,West,267,5.0,6.0,68,0.00,,---,0.00,VWS V15.00,2017-12-16 19:55:00,
2017-12-16 13:58:00,33.0,24.0,30.07,West,275,3.0,5.0,69,0.00,,---,0.00,VWS V15.00,2017-12-16 19:58:00,
2017-12-16 14:00:00,33.1,23.7,30.07,West,268,6.0,8.0,68,0.00,,---,0.00,VWS V15.00,2017-12-16 20:00:00,
2017-12-16 14:04:00,33.2,23.8,30.07,West,273,4.0,8.0,68,0.00,,---,0.00,VWS V15.00,2017-12-16 20:04:00,
2017-12-16 14:09:00,33.0,23.6,30.07,West,270,4.0,8.0,68,0.00,,---,0.00,VWS V15.00,2017-12-16 20:09:00,
2017-12-16 14:14:00,32.9,23.9,30.07,West,266,4.0,4.0,69,0.00,,---,0.00,VWS V15.00,2017-12-16 20:14:00,
2017-12-16 14:17:00,32.9,23.9,30.07,West,265,6.0,8.0,69,0.00,,---,0.00,VWS V15.00,2017-12-16 20:17:00,
2017-12-16 14:18:00,32.9,23.9,30.07,West,265,5.0,6.0,69,0.00,,---,0.00,VWS V15.00,2017-12-16 20:18:00,
2017-12-16 14:22:00,32.8,23.4,30.06,West,268,9.0,9.0,68,0.00,,---,0.00,VWS V15.00,2017-12-16 20:22:00,
2017-12-16 14:25:00,32.8,23.4,30.07,West,259,5.0,5.0,68,0.00,,---,0.00,VWS V15.00,2017-12-16 20:25:00,
2017-12-16 14:28:00,32.9,23.9,30.07,West,269,7.0,10.0,69,0.00,,---,0.00,VWS V15.00,2017-12-16 20:28:00,
2017-12-16 14:32:00,32.9,23.9,30.07,West,265,7.0,8.0,69,0.00,,---,0.00,VWS V15.00,2017-12-16 20:32:00,
2017-12-16 14:36:00,33.0,23.6,30.07,West,271,8.0,8.0,68,0.00,,---,0.00,VWS V15.00,2017-12-16 20:36:00,
2017-12-16 14:39:00,33.2,23.8,30.06,West,279,6.0,9.0,68,0.00,,---,0.00,VWS V15.00,2017-12-16 20:39:00,
2017-12-16 14:41:00,33.2,23.8,30.07,West,266,5.0,6.0,68,0.00,,---,0.00,VWS V15.00,2017-12-16 20:41:00,
2017-12-16 14:46:00,33.3,23.9,30.07,West,270,6.0,6.0,68,0.00,,---,0.00,VWS V15.00,2017-12-16 20:46:00,
2017-12-16 14:48:00,33.4,24.0,30.07,West,270,5.0,5.0,68,0.00,,---,0.00,VWS V15.00,2017-12-16 20:48:00,
2017-12-16 14:51:00,33.5,24.1,30.07,West,267,3.0,8.0,68,0.00,,---,0.00,VWS V15.00,2017-12-16 20:51:00,
2017-12-16 14:54:00,33.5,23.7,30.07,West,269,7.0,7.0,67,0.00,,---,0.00,VWS V15.00,2017-12-16 20:54:00,
2017-12-16 14:59:00,33.6,23.8,30.07,West,268,5.0,8.0,67,0.00,,---,0.00,VWS V15.00,2017-12-16 20:59:00,
2017-12-16 15:00:00,33.6,23.8,30.07,West,268,2.0,5.0,67,0.00,,---,0.00,VWS V15.00,2017-12-16 21:00:00,
2017-12-16 15:05:00,33.6,23.8,30.07,West,263,9.0,9.0,67,0.00,,---,0.00,VWS V15.00,2017-12-16 21:05:00,
2017-12-16 15:06:00,33.6,23.8,30.07,West,265,5.0,8.0,67,0.00,,---,0.00,VWS V15.00,2017-12-16 21:06:00,
2017-12-16 15:10:00,33.7,23.9,30.07,West,266,5.0,7.0,67,0.00,,---,0.00,VWS V15.00,2017-12-16 21:10:00,
2017-12-16 15:15:00,33.8,24.0,30.07,West,277,3.0,7.0,67,0.00,,---,0.00,VWS V15.00,2017-12-16 21:15:00,
2017-12-16 15:17:00,33.9,24.1,30.07,West,267,3.0,5.0,67,0.00,,---,0.00,VWS V15.00,2017-12-16 21:17:00,
2017-12-16 15:20:00,34.0,24.2,30.07,West,271,5.0,7.0,67,0.00,,---,0.00,VWS V15.00,2017-12-16 21:20:00,
2017-12-16 15:25:00,34.1,24.0,30.07,West,270,4.0,7.0,66,0.00,,---,0.00,VWS V15.00,2017-12-16 21:25:00,
2017-12-16 15:26:00,34.1,24.0,30.07,West,278,4.0,5.0,66,0.00,,---,0.00,VWS V15.00,2017-12-16 21:26:00,
2017-12-16 15:31:00,34.0,23.9,30.08,West,277,6.0,7.0,66,0.00,,---,0.00,VWS V15.00,2017-12-16 21:31:00,
2017-12-16 15:32:00,34.0,23.9,30.08,West,260,7.0,9.0,66,0.00,,---,0.00,VWS V15.00,2017-12-16 21:32:00,
2017-12-16 15:36:00,33.9,23.8,30.08,West,280,3.0,4.0,66,0.00,,---,0.00,VWS V15.00,2017-12-16 21:36:00,
2017-12-16 15:41:00,33.9,23.8,30.08,West,279,6.0,7.0,66,0.00,,---,0.00,VWS V15.00,2017-12-16 21:41:00,
2017-12-16 15:42:00,33.9,23.8,30.09,West,279,3.0,5.0,66,0.00,,---,0.00,VWS V15.00,2017-12-16 21:42:00,
2017-12-16 15:46:00,33.7,23.6,30.08,West,271,3.0,5.0,66,0.00,,---,0.00,VWS V15.00,2017-12-16 21:46:00,
2017-12-16 15:47:00,33.7,23.9,30.08,West,273,6.0,6.0,67,0.00,,---,0.00,VWS V15.00,2017-12-16 21:47:00,
2017-12-16 15:48:00,33.7,23.9,30.08,West,273,6.0,7.0,67,0.00,,---,0.00,VWS V15.00,2017-12-16 21:48:00,
2017-12-16 15:53:00,33.6,23.8,30.09,West,279,6.0,8.0,67,0.00,,---,0.00,VWS V15.00,2017-12-16 21:53:00,
2017-12-16 15:57:00,33.6,23.5,30.09,West,275,4.0,8.0,66,0.00,,---,0.00,VWS V15.00,2017-12-16 21:57:00,
2017-12-16 16:02:00,33.5,23.7,30.09,West,270,3.0,4.0,67,0.00,,---,0.00,VWS V15.00,2017-12-16 22:02:00,
2017-12-16 16:04:00,33.4,23.6,30.09,West,267,6.0,7.0,67,0.00,,---,0.00,VWS V15.00,2017-12-16 22:04:00,
2017-12-16 16:07:00,33.4,23.6,30.09,West,267,4.0,4.0,67,0.00,,---,0.00,VWS V15.00,2017-12-16 22:07:00,
2017-12-16 16:12:00,33.2,23.8,30.09,West,263,7.0,7.0,68,0.00,,---,0.00,VWS V15.00,2017-12-16 22:12:00,
2017-12-16 16:15:00,33.2,23.8,30.09,West,262,5.0,6.0,68,0.00,,---,0.00,VWS V15.00,2017-12-16 22:15:00,
2017-12-16 16:19:00,33.0,23.6,30.10,West,261,3.0,6.0,68,0.00,,---,0.00,VWS V15.00,2017-12-16 22:19:00,
2017-12-16 16:20:00,33.0,23.6,30.10,West,261,5.0,8.0,68,0.00,,---,0.00,VWS V15.00,2017-12-16 22:20:00,
2017-12-16 16:23:00,32.9,23.5,30.10,West,262,3.0,7.0,68,0.00,,---,0.00,VWS V15.00,2017-12-16 22:23:00,
2017-12-16 16:26:00,32.8,23.4,30.10,West,262,3.0,4.0,68,0.00,,---,0.00,VWS V15.00,2017-12-16 22:26:00,
2017-12-16 16:29:00,32.7,23.3,30.10,West,261,2.0,5.0,68,0.00,,---,0.00,VWS V15.00,2017-12-16 22:29:00,
2017-12-16 16:31:00,32.6,23.2,30.10,West,261,1.0,4.0,68,0.00,,---,0.00,VWS V15.00,2017-12-16 22:31:00,
2017-12-16 16:35:00,32.4,23.4,30.10,West,262,4.0,4.0,69,0.00,,---,0.00,VWS V15.00,2017-12-16 22:35:00,
2017-12-16 16:36:00,32.4,23.4,30.10,West,262,4.0,5.0,69,0.00,,---,0.00,VWS V15.00,2017-12-16 22:36:00,
2017-12-16 16:41:00,32.3,23.3,30.10,West,261,4.0,4.0,69,0.00,,---,0.00,VWS V15.00,2017-12-16 22:41:00,
2017-12-16 16:42:00,32.3,23.3,30.10,West,262,4.0,4.0,69,0.00,,---,0.00,VWS V15.00,2017-12-16 22:42:00,
2017-12-16 16:47:00,32.0,23.0,30.11,West,262,2.0,5.0,69,0.00,,---,0.00,VWS V15.00,2017-12-16 22:47:00,
2017-12-16 16:49:00,31.9,22.9,30.11,West,262,3.0,4.0,69,0.00,,---,0.00,VWS V15.00,2017-12-16 22:49:00,
2017-12-16 16:50:00,31.9,23.2,30.11,West,262,2.0,4.0,70,0.00,,---,0.00,VWS V15.00,2017-12-16 22:50:00,
2017-12-16 16:55:00,31.8,23.1,30.11,West,262,2.0,2.0,70,0.00,,---,0.00,VWS V15.00,2017-12-16 22:55:00,
2017-12-16 16:57:00,31.7,23.0,30.11,West,261,2.0,4.0,70,0.00,,---,0.00,VWS V15.00,2017-12-16 22:57:00,
2017-12-16 17:00:00,31.6,23.0,30.11,West,262,2.0,2.0,70,0.00,,---,0.00,VWS V15.00,2017-12-16 23:00:00,
2017-12-16 17:05:00,31.4,22.8,30.11,West,262,2.0,4.0,70,0.00,,---,0.00,VWS V15.00,2017-12-16 23:05:00,
2017-12-16 17:06:00,31.4,23.1,30.11,West,262,4.0,4.0,71,0.00,,---,0.00,VWS V15.00,2017-12-16 23:06:00,
2017-12-16 17:10:00,31.2,22.9,30.11,West,262,3.0,3.0,71,0.00,,---,0.00,VWS V15.00,2017-12-16 23:10:00,
2017-12-16 17:11:00,31.2,22.9,30.11,West,261,2.0,2.0,71,0.00,,---,0.00,VWS V15.00,2017-12-16 23:11:00,
2017-12-16 17:16:00,31.0,22.7,30.12,West,262,1.0,1.0,71,0.00,,---,0.00,VWS V15.00,2017-12-16 23:16:00,
2017-12-16 17:17:00,30.9,22.6,30.12,West,262,3.0,4.0,71,0.00,,---,0.00,VWS V15.00,2017-12-16 23:17:00,
2017-12-16 17:20:00,30.8,22.5,30.12,West,262,0.0,2.0,71,0.00,,---,0.00,VWS V15.00,2017-12-16 23:20:00,
2017-12-16 17:22:00,30.7,22.4,30.12,West,262,2.0,2.0,71,0.00,,---,0.00,VWS V15.00,2017-12-16 23:22:00,
2017-12-16 17:23:00,30.6,22.3,30.12,West,262,0.0,2.0,71,0.00,,---,0.00,VWS V15.00,2017-12-16 23:23:00,
2017-12-16 17:28:00,30.4,22.5,30.12,West,262,3.0,3.0,72,0.00,,---,0.00,VWS V15.00,2017-12-16 23:28:00,
2017-12-16 17:29:00,30.4,22.5,30.12,West,262,2.0,2.0,72,0.00,,---,0.00,VWS V15.00,2017-12-16 23:29:00,
2017-12-16 17:33:00,30.2,22.3,30.12,West,262,2.0,2.0,72,0.00,,---,0.00,VWS V15.00,2017-12-16 23:33:00,
2017-12-16 17:35:00,30.1,22.2,30.12,West,262,0.0,2.0,72,0.00,,---,0.00,VWS V15.00,2017-12-16 23:35:00,
2017-12-16 17:39:00,30.0,22.4,30.12,West,262,1.0,2.0,73,0.00,,---,0.00,VWS V15.00,2017-12-16 23:39:00,
2017-12-16 17:42:00,29.8,22.2,30.12,West,262,0.0,0.0,73,0.00,,---,0.00,VWS V15.00,2017-12-16 23:42:00,
2017-12-16 17:44:00,29.7,22.1,30.12,West,262,0.0,0.0,73,0.00,,---,0.00,VWS V15.00,2017-12-16 23:44:00,
2017-12-16 17:48:00,29.6,22.0,30.13,West,262,0.0,2.0,73,0.00,,---,0.00,VWS V15.00,2017-12-16 23:48:00,
2017-12-16 17:49:00,29.5,22.2,30.12,West,262,0.0,0.0,74,0.00,,---,0.00,VWS V15.00,2017-12-16 23:49:00,
2017-12-16 17:55:00,29.2,22.0,30.13,West,262,0.0,0.0,74,0.00,,---,0.00,VWS V15.00,2017-12-16 23:55:00,
2017-12-16 18:00:00,28.9,21.7,30.13,West,262,0.0,0.0,74,0.00,,---,0.00,VWS V15.00,2017-12-17 00:00:00,
2017-12-16 18:01:00,28.9,21.7,30.13,West,262,0.0,0.0,74,0.00,,---,0.00,VWS V15.00,2017-12-17 00:01:00,
2017-12-16 18:05:00,28.7,21.8,30.13,West,261,0.0,0.0,75,0.00,,---,0.00,VWS V15.00,2017-12-17 00:05:00,
2017-12-16 18:06:00,28.6,21.7,30.13,West,262,0.0,0.0,75,0.00,,---,0.00,VWS V15.00,2017-12-17 00:06:00,
2017-12-16 18:07:00,28.6,21.7,30.13,West,262,0.0,0.0,75,0.00,,---,0.00,VWS V15.00,2017-12-17 00:07:00,
2017-12-16 18:11:00,28.4,21.5,30.13,West,262,0.0,0.0,75,0.00,,---,0.00,VWS V15.00,2017-12-17 00:11:00,
2017-12-16 18:14:00,28.1,21.5,30.14,West,262,0.0,0.0,76,0.00,,---,0.00,VWS V15.00,2017-12-17 00:14:00,
2017-12-16 18:17:00,28.0,21.4,30.14,West,262,0.0,0.0,76,0.00,,---,0.00,VWS V15.00,2017-12-17 00:17:00,
2017-12-16 18:19:00,27.8,21.2,30.14,West,262,0.0,0.0,76,0.00,,---,0.00,VWS V15.00,2017-12-17 00:19:00,
2017-12-16 18:21:00,27.8,21.2,30.14,West,262,0.0,0.0,76,0.00,,---,0.00,VWS V15.00,2017-12-17 00:21:00,
2017-12-16 18:22:00,27.7,21.4,30.14,West,262,0.0,0.0,77,0.00,,---,0.00,VWS V15.00,2017-12-17 00:22:00,
2017-12-16 18:27:00,27.4,21.1,30.14,West,261,0.0,0.0,77,0.00,,---,0.00,VWS V15.00,2017-12-17 00:27:00,
2017-12-16 18:32:00,27.1,21.2,30.14,West,262,1.0,1.0,78,0.00,,---,0.00,VWS V15.00,2017-12-17 00:32:00,
2017-12-16 18:33:00,27.1,21.2,30.14,West,262,1.0,2.0,78,0.00,,---,0.00,VWS V15.00,2017-12-17 00:33:00,
2017-12-16 18:37:00,26.9,21.0,30.14,West,262,1.0,2.0,78,0.00,,---,0.00,VWS V15.00,2017-12-17 00:37:00,
2017-12-16 18:38:00,26.9,21.0,30.14,West,261,2.0,2.0,78,0.00,,---,0.00,VWS V15.00,2017-12-17 00:38:00,
2017-12-16 18:43:00,26.7,21.1,30.14,West,262,1.0,2.0,79,0.00,,---,0.00,VWS V15.00,2017-12-17 00:43:00,
2017-12-16 18:48:00,26.6,21.0,30.14,West,261,1.0,4.0,79,0.00,,---,0.00,VWS V15.00,2017-12-17 00:48:00,
2017-12-16 18:53:00,26.6,21.0,30.14,West,262,1.0,3.0,79,0.00,,---,0.00,VWS V15.00,2017-12-17 00:53:00,
2017-12-16 18:54:00,26.6,21.0,30.15,West,262,2.0,3.0,79,0.00,,---,0.00,VWS V15.00,2017-12-17 00:54:00,
2017-12-16 18:59:00,26.7,21.1,30.15,West,262,0.0,2.0,79,0.00,,---,0.00,VWS V15.00,2017-12-17 00:59:00,
2017-12-16 19:00:00,26.7,21.1,30.15,West,261,0.0,0.0,79,0.00,,---,0.00,VWS V15.00,2017-12-17 01:00:00,
2017-12-16 19:01:00,26.7,21.1,30.15,West,261,0.0,0.0,79,0.00,,---,0.00,VWS V15.00,2017-12-17 01:01:00,
2017-12-16 19:05:00,26.7,21.1,30.15,West,262,0.0,1.0,79,0.00,,---,0.00,VWS V15.00,2017-12-17 01:05:00,
2017-12-16 19:07:00,26.6,21.0,30.15,West,261,0.0,0.0,79,0.00,,---,0.00,VWS V15.00,2017-12-17 01:07:00,
2017-12-16 19:10:00,26.4,20.5,30.15,West,261,1.0,1.0,78,0.00,,---,0.00,VWS V15.00,2017-12-17 01:10:00,
2017-12-16 19:16:00,26.1,20.8,30.15,West,262,5.0,5.0,80,0.00,,---,0.00,VWS V15.00,2017-12-17 01:16:00,
2017-12-16 19:17:00,26.1,20.8,30.15,West,262,5.0,5.0,80,0.00,,---,0.00,VWS V15.00,2017-12-17 01:17:00,
2017-12-16 19:22:00,26.4,21.1,30.15,West,263,6.0,7.0,80,0.00,,---,0.00,VWS V15.00,2017-12-17 01:22:00,
2017-12-16 19:27:00,26.9,21.6,30.16,West,262,4.0,4.0,80,0.00,,---,0.00,VWS V15.00,2017-12-17 01:27:00,
2017-12-16 19:32:00,27.1,21.5,30.16,West,263,3.0,5.0,79,0.00,,---,0.00,VWS V15.00,2017-12-17 01:32:00,
2017-12-16 19:34:00,27.1,21.5,30.16,West,263,2.0,5.0,79,0.00,,---,0.00,VWS V15.00,2017-12-17 01:34:00,
2017-12-16 19:38:00,27.2,21.6,30.16,West,263,5.0,5.0,79,0.00,,---,0.00,VWS V15.00,2017-12-17 01:38:00,
2017-12-16 19:40:00,27.2,21.6,30.16,West,263,4.0,4.0,79,0.00,,---,0.00,VWS V15.00,2017-12-17 01:40:00,
2017-12-16 19:43:00,27.1,21.5,30.16,West,263,4.0,5.0,79,0.00,,---,0.00,VWS V15.00,2017-12-17 01:43:00,
2017-12-16 19:46:00,27.1,21.5,30.17,West,264,3.0,3.0,79,0.00,,---,0.00,VWS V15.00,2017-12-17 01:46:00,
2017-12-16 19:48:00,27.2,21.6,30.17,West,265,4.0,6.0,79,0.00,,---,0.00,VWS V15.00,2017-12-17 01:48:00,
2017-12-16 19:49:00,27.2,21.6,30.17,West,265,3.0,4.0,79,0.00,,---,0.00,VWS V15.00,2017-12-17 01:49:00,
2017-12-16 19:53:00,27.0,21.4,30.17,West,265,2.0,2.0,79,0.00,,---,0.00,VWS V15.00,2017-12-17 01:53:00,
2017-12-16 19:55:00,27.0,21.4,30.17,West,265,5.0,5.0,79,0.00,,---,0.00,VWS V15.00,2017-12-17 01:55:00,
2017-12-16 19:58:00,26.9,21.3,30.17,West,265,6.0,6.0,79,0.00,,---,0.00,VWS V15.00,2017-12-17 01:58:00,
2017-12-16 20:00:00,26.8,21.2,30.17,West,265,5.0,7.0,79,0.00,,---,0.00,VWS V15.00,2017-12-17 02:00:00,
2017-12-16 20:04:00,26.8,20.9,30.17,West,265,4.0,7.0,78,0.00,,---,0.00,VWS V15.00,2017-12-17 02:04:00,
2017-12-16 20:09:00,26.7,20.8,30.17,West,265,3.0,3.0,78,0.00,,---,0.00,VWS V15.00,2017-12-17 02:09:00,
2017-12-16 20:10:00,26.7,20.8,30.17,West,265,5.0,5.0,78,0.00,,---,0.00,VWS V15.00,2017-12-17 02:10:00,
2017-12-16 20:14:00,26.5,20.6,30.17,West,266,5.0,5.0,78,0.00,,---,0.00,VWS V15.00,2017-12-17 02:14:00,
2017-12-16 20:16:00,26.4,20.5,30.17,West,266,2.0,5.0,78,0.00,,---,0.00,VWS V15.00,2017-12-17 02:16:00,
2017-12-16 20:20:00,26.2,20.3,30.17,West,266,3.0,3.0,78,0.00,,---,0.00,VWS V15.00,2017-12-17 02:20:00,
2017-12-16 20:21:00,26.2,20.3,30.17,West,266,3.0,5.0,78,0.00,,---,0.00,VWS V15.00,2017-12-17 02:21:00,
2017-12-16 20:26:00,26.0,20.1,30.17,West,266,3.0,5.0,78,0.00,,---,0.00,VWS V15.00,2017-12-17 02:26:00,
2017-12-16 20:27:00,26.0,20.1,30.17,West,266,3.0,6.0,78,0.00,,---,0.00,VWS V15.00,2017-12-17 02:27:00,
2017-12-16 20:31:00,25.9,20.0,30.17,West,266,3.0,3.0,78,0.00,,---,0.00,VWS V15.00,2017-12-17 02:31:00,
2017-12-16 20:36:00,25.8,19.9,30.17,West,266,5.0,5.0,78,0.00,,---,0.00,VWS V15.00,2017-12-17 02:36:00,
2017-12-16 20:41:00,25.5,19.9,30.17,West,266,2.0,3.0,79,0.00,,---,0.00,VWS V15.00,2017-12-17 02:41:00,
2017-12-16 20:42:00,25.4,19.8,30.17,West,266,3.0,3.0,79,0.00,,---,0.00,VWS V15.00,2017-12-17 02:42:00,